TSC739 TFFF-CYUL

Flight info

Callsign TSC739
Flight time 5h 11m
Altitude 34000
Route EMOLA2R EMOLA A555 DUNTA UA555 ILURI L454 LEEOO DCT HANCY L456 MARIG/N0460F360 Y483 DOGRS Y487 SHIPP DCT JFK DCT LLUND DCT CAM DCT JASDU DCT PBERG CARTR5
Aircraft A321/M-SDE3FGHIRWY/LB1

Departure

Time 2026-05-08 15:12
Airport Martinique Aimé Césaire International Airport (TFFF)

Arrival

Time 2026-05-08 20:24
Airport Montreal / Pierre Elliott Trudeau International Airport (CYUL)
Time Latitude Longitude Altitude Speed Heading
2026-05-08 14:41 14.59530 -61.00389 20 ft 0 kts 246°
2026-05-08 14:55 14.59531 -61.00387 21 ft 0 kts 246°
2026-05-08 14:55 14.59535 -61.00377 22 ft 2 kts 246°
2026-05-08 14:56 14.59542 -61.00362 20 ft 2 kts 246°
2026-05-08 14:56 14.59548 -61.00347 22 ft 2 kts 246°
2026-05-08 14:56 14.59556 -61.00332 23 ft 2 kts 232°
2026-05-08 14:56 14.59566 -61.00319 25 ft 2 kts 227°
2026-05-08 14:57 14.59578 -61.00307 21 ft 2 kts 204°
2026-05-08 14:57 14.59593 -61.00303 21 ft 2 kts 173°
2026-05-08 14:57 14.59609 -61.00307 21 ft 0 kts 157°
2026-05-08 15:01 14.59602 -61.00304 22 ft 3 kts 159°
2026-05-08 15:01 14.59577 -61.00296 23 ft 4 kts 163°
2026-05-08 15:01 14.59543 -61.00283 21 ft 6 kts 155°
2026-05-08 15:01 14.59497 -61.00252 22 ft 10 kts 143°
2026-05-08 15:02 14.59451 -61.00208 20 ft 9 kts 135°
2026-05-08 15:02 14.59415 -61.00165 20 ft 8 kts 127°
2026-05-08 15:02 14.59389 -61.00121 20 ft 7 kts 115°
2026-05-08 15:02 14.59371 -61.00074 20 ft 7 kts 110°
2026-05-08 15:03 14.59341 -61.00041 20 ft 8 kts 160°
2026-05-08 15:03 14.59290 -61.00032 20 ft 7 kts 170°
2026-05-08 15:03 14.59279 -61.00030 20 ft 0 kts 170°
2026-05-08 15:06 14.59254 -61.00026 19 ft 9 kts 171°
2026-05-08 15:06 14.59192 -61.00022 19 ft 9 kts 194°
2026-05-08 15:06 14.59144 -61.00096 17 ft 17 kts 255°
2026-05-08 15:07 14.59122 -61.00215 16 ft 16 kts 260°
2026-05-08 15:07 14.59104 -61.00328 16 ft 18 kts 260°
2026-05-08 15:07 14.59082 -61.00463 16 ft 19 kts 261°
2026-05-08 15:07 14.59059 -61.00593 17 ft 18 kts 259°
2026-05-08 15:08 14.59035 -61.00729 19 ft 19 kts 259°
2026-05-08 15:08 14.59018 -61.00824 22 ft 20 kts 260°
2026-05-08 15:08 14.58988 -61.01006 19 ft 18 kts 260°
2026-05-08 15:08 14.58967 -61.01126 20 ft 16 kts 260°
2026-05-08 15:09 14.58949 -61.01229 21 ft 13 kts 260°
2026-05-08 15:09 14.58934 -61.01320 21 ft 14 kts 260°
2026-05-08 15:09 14.58915 -61.01434 20 ft 17 kts 258°
2026-05-08 15:09 14.58892 -61.01556 20 ft 17 kts 259°
2026-05-08 15:10 14.58872 -61.01669 20 ft 15 kts 260°
2026-05-08 15:10 14.58896 -61.01765 19 ft 14 kts 303°
2026-05-08 15:10 14.58858 -61.01808 18 ft 10 kts 149°
2026-05-08 15:10 14.58861 -61.01746 20 ft 8 kts 73°
2026-05-08 15:11 14.58871 -61.01691 19 ft 8 kts 79°
2026-05-08 15:11 14.58903 -61.01513 21 ft 56 kts 79°
2026-05-08 15:11 14.59007 -61.00904 20 ft 114 kts 79°
2026-05-08 15:11 14.59174 -60.99943 21 ft 157 kts 81°
2026-05-08 15:12 14.59336 -60.98781 453 ft 161 kts 81°
2026-05-08 15:12 14.59487 -60.97643 1045 ft 163 kts 82°
2026-05-08 15:12 14.59654 -60.96492 1607 ft 160 kts 81°
2026-05-08 15:12 14.59834 -60.95376 2100 ft 162 kts 78°
2026-05-08 15:13 14.60012 -60.94186 2435 ft 177 kts 82°
2026-05-08 15:13 14.60193 -60.92861 2645 ft 194 kts 81°
2026-05-08 15:13 14.60386 -60.91437 2934 ft 206 kts 82°
2026-05-08 15:13 14.60614 -60.89950 3427 ft 212 kts 73°
2026-05-08 15:14 14.61450 -60.88643 3705 ft 234 kts 41°
2026-05-08 15:14 14.62972 -60.87866 3965 ft 258 kts 11°
2026-05-08 15:14 14.64793 -60.88021 4517 ft 271 kts 347°
2026-05-08 15:14 14.66622 -60.88538 5181 ft 274 kts 348°
2026-05-08 15:15 14.68480 -60.89006 5851 ft 276 kts 349°
2026-05-08 15:15 14.70361 -60.89457 6519 ft 278 kts 349°
2026-05-08 15:15 14.72258 -60.89909 7108 ft 282 kts 349°
2026-05-08 15:15 14.74177 -60.90371 7726 ft 284 kts 349°
2026-05-08 15:16 14.76109 -60.90846 8356 ft 287 kts 349°
2026-05-08 15:16 14.78056 -60.91330 8969 ft 289 kts 348°
2026-05-08 15:16 14.80019 -60.91822 9546 ft 292 kts 348°
2026-05-08 15:16 14.82003 -60.92319 10088 ft 294 kts 348°
2026-05-08 15:17 14.84038 -60.92831 10306 ft 310 kts 348°
2026-05-08 15:17 14.86193 -60.93369 10429 ft 327 kts 348°
2026-05-08 15:17 14.88460 -60.93943 10551 ft 344 kts 345°
2026-05-08 15:17 14.90726 -60.94910 10669 ft 362 kts 331°
2026-05-08 15:18 14.92775 -60.96491 10909 ft 374 kts 316°
2026-05-08 15:18 14.94425 -60.98589 11347 ft 379 kts 303°
2026-05-08 15:18 14.95560 -61.01059 11869 ft 383 kts 289°
2026-05-08 15:18 14.96329 -61.03697 12407 ft 384 kts 287°
2026-05-08 15:19 14.97084 -61.06353 12946 ft 385 kts 287°
2026-05-08 15:19 14.97838 -61.09017 13474 ft 387 kts 287°
2026-05-08 15:19 14.98595 -61.11694 13967 ft 389 kts 287°
2026-05-08 15:19 14.99355 -61.14383 14378 ft 391 kts 288°
2026-05-08 15:20 15.00121 -61.17094 14780 ft 394 kts 288°
2026-05-08 15:20 15.00893 -61.19826 15149 ft 398 kts 288°
2026-05-08 15:20 15.01408 -61.21649 15384 ft 400 kts 288°
2026-05-08 15:20 15.02190 -61.24421 15764 ft 403 kts 288°
2026-05-08 15:21 15.02977 -61.27214 16131 ft 406 kts 288°
2026-05-08 15:21 15.03770 -61.30025 16494 ft 409 kts 288°
2026-05-08 15:21 15.04572 -61.32857 16849 ft 412 kts 289°
2026-05-08 15:21 15.05380 -61.35710 17198 ft 415 kts 289°
2026-05-08 15:22 15.06194 -61.38584 17526 ft 418 kts 289°
2026-05-08 15:22 15.07012 -61.41473 17886 ft 420 kts 289°
2026-05-08 15:22 15.07836 -61.44386 18200 ft 423 kts 289°
2026-05-08 15:22 15.08664 -61.47314 18501 ft 425 kts 289°
2026-05-08 15:23 15.09494 -61.50261 18796 ft 428 kts 289°
2026-05-08 15:23 15.10324 -61.53225 19094 ft 430 kts 289°
2026-05-08 15:23 15.11155 -61.56203 19400 ft 432 kts 290°
2026-05-08 15:23 15.11989 -61.59192 19702 ft 433 kts 290°
2026-05-08 15:24 15.12902 -61.62168 19996 ft 433 kts 295°
2026-05-08 15:24 15.14224 -61.64948 20295 ft 430 kts 305°
2026-05-08 15:24 15.15965 -61.67449 20596 ft 427 kts 315°
2026-05-08 15:24 15.17952 -61.69731 20903 ft 428 kts 316°
2026-05-08 15:25 15.19952 -61.72022 21220 ft 430 kts 316°
2026-05-08 15:25 15.21956 -61.74326 21543 ft 431 kts 316°
2026-05-08 15:25 15.23965 -61.76641 21865 ft 433 kts 316°
2026-05-08 15:25 15.25983 -61.78969 22174 ft 435 kts 316°
2026-05-08 15:26 15.28007 -61.81304 22489 ft 437 kts 316°
2026-05-08 15:26 15.30039 -61.83650 22797 ft 438 kts 316°
2026-05-08 15:26 15.32050 -61.85974 23099 ft 440 kts 316°
2026-05-08 15:26 15.34097 -61.88339 23398 ft 442 kts 316°
2026-05-08 15:27 15.36154 -61.90712 23679 ft 444 kts 316°
2026-05-08 15:27 15.38219 -61.93094 23919 ft 445 kts 316°
2026-05-08 15:27 15.40291 -61.95487 24163 ft 447 kts 316°
2026-05-08 15:27 15.42374 -61.97892 24407 ft 449 kts 316°
2026-05-08 15:28 15.44463 -62.00306 24651 ft 451 kts 316°
2026-05-08 15:28 15.46559 -62.02727 24898 ft 452 kts 316°
2026-05-08 15:28 15.48665 -62.05157 25127 ft 454 kts 316°
2026-05-08 15:28 15.50777 -62.07597 25362 ft 456 kts 316°
2026-05-08 15:29 15.52896 -62.10047 25599 ft 457 kts 316°
2026-05-08 15:29 15.55022 -62.12508 25820 ft 459 kts 316°
2026-05-08 15:29 15.57155 -62.14981 26041 ft 461 kts 316°
2026-05-08 15:29 15.59294 -62.17462 26279 ft 462 kts 316°
2026-05-08 15:30 15.61442 -62.19952 26510 ft 464 kts 316°
2026-05-08 15:30 15.63598 -62.22452 26739 ft 466 kts 316°
2026-05-08 15:30 15.65760 -62.24961 26968 ft 467 kts 316°
2026-05-08 15:30 15.67929 -62.27480 27207 ft 469 kts 316°
2026-05-08 15:31 15.70107 -62.30010 27428 ft 471 kts 316°
2026-05-08 15:31 15.72291 -62.32547 27653 ft 472 kts 316°
2026-05-08 15:31 15.74479 -62.35088 27941 ft 472 kts 316°
2026-05-08 15:31 15.76667 -62.37625 28264 ft 471 kts 316°
2026-05-08 15:32 15.78851 -62.40156 28564 ft 470 kts 316°
2026-05-08 15:32 15.81029 -62.42687 28861 ft 470 kts 316°
2026-05-08 15:32 15.83201 -62.45218 29158 ft 469 kts 316°
2026-05-08 15:32 15.85374 -62.47748 29455 ft 469 kts 316°
2026-05-08 15:33 15.87542 -62.50273 29749 ft 468 kts 317°
2026-05-08 15:33 15.89707 -62.52797 30047 ft 468 kts 317°
2026-05-08 15:33 15.91872 -62.55320 30293 ft 467 kts 317°
2026-05-08 15:33 15.94032 -62.57838 30557 ft 466 kts 317°
2026-05-08 15:34 15.96189 -62.60349 30831 ft 465 kts 317°
2026-05-08 15:34 15.98339 -62.62853 31107 ft 464 kts 317°
2026-05-08 15:34 16.00480 -62.65350 31398 ft 462 kts 317°
2026-05-08 15:34 16.02613 -62.67842 31676 ft 461 kts 317°
2026-05-08 15:35 16.04740 -62.70328 31956 ft 459 kts 317°
2026-05-08 15:35 16.06863 -62.72805 32243 ft 458 kts 317°
2026-05-08 15:35 16.08976 -62.75275 32533 ft 456 kts 317°
2026-05-08 15:35 16.11081 -62.77738 32830 ft 455 kts 317°
2026-05-08 15:36 16.13179 -62.80193 33118 ft 453 kts 317°
2026-05-08 15:36 16.15270 -62.82635 33402 ft 451 kts 317°
2026-05-08 15:36 16.17357 -62.85071 33683 ft 450 kts 317°
2026-05-08 15:36 16.19433 -62.87496 33952 ft 449 kts 317°
2026-05-08 15:37 16.23564 -62.92329 34045 ft 445 kts 317°
2026-05-08 15:37 16.27667 -62.97133 34049 ft 443 kts 317°
2026-05-08 15:38 16.31772 -63.01919 34045 ft 443 kts 318°
2026-05-08 15:38 16.35956 -63.06607 34052 ft 441 kts 319°
2026-05-08 15:39 16.40167 -63.11255 34051 ft 441 kts 319°
2026-05-08 15:39 16.44366 -63.15914 34048 ft 441 kts 319°
2026-05-08 15:40 16.48545 -63.20597 34052 ft 441 kts 319°
2026-05-08 15:40 16.52721 -63.25285 34047 ft 441 kts 319°
2026-05-08 15:41 16.56864 -63.29938 34049 ft 441 kts 319°
2026-05-08 15:41 16.61033 -63.34622 34045 ft 440 kts 319°
2026-05-08 15:42 16.65202 -63.39298 34041 ft 440 kts 318°
2026-05-08 15:42 16.69369 -63.43972 34039 ft 440 kts 318°
2026-05-08 15:43 16.73527 -63.48659 34034 ft 440 kts 318°
2026-05-08 15:43 16.77691 -63.53341 34036 ft 440 kts 318°
2026-05-08 15:44 16.81862 -63.58025 34037 ft 440 kts 318°
2026-05-08 15:44 16.86031 -63.62710 34036 ft 441 kts 318°
2026-05-08 15:45 16.90195 -63.67415 34043 ft 441 kts 318°
2026-05-08 15:45 16.94359 -63.72124 34045 ft 442 kts 318°
2026-05-08 15:46 16.98537 -63.76830 34044 ft 442 kts 318°
2026-05-08 15:46 17.02692 -63.81512 34042 ft 443 kts 318°
2026-05-08 15:47 17.06870 -63.86243 34042 ft 443 kts 317°
2026-05-08 15:47 17.11051 -63.90977 34045 ft 443 kts 317°
2026-05-08 15:48 17.17327 -63.98099 34037 ft 444 kts 317°
2026-05-08 15:49 17.21520 -64.02848 34033 ft 444 kts 317°
2026-05-08 15:49 17.25715 -64.07599 34032 ft 445 kts 317°
2026-05-08 15:50 17.29912 -64.12358 34033 ft 445 kts 317°
2026-05-08 15:50 17.34118 -64.17135 34034 ft 446 kts 317°
2026-05-08 15:51 17.38326 -64.21921 34040 ft 447 kts 317°
2026-05-08 15:51 17.42534 -64.26713 34045 ft 447 kts 317°
2026-05-08 15:52 17.46744 -64.31509 34049 ft 447 kts 317°
2026-05-08 15:52 17.50952 -64.36300 34052 ft 447 kts 317°
2026-05-08 15:53 17.55175 -64.41075 34052 ft 445 kts 320°
2026-05-08 15:53 17.60090 -64.44794 34059 ft 435 kts 338°
2026-05-08 15:54 17.65695 -64.47051 34061 ft 431 kts 343°
2026-05-08 15:54 17.71351 -64.49173 34067 ft 432 kts 343°
2026-05-08 15:55 17.77008 -64.51312 34072 ft 432 kts 343°
2026-05-08 15:55 17.85497 -64.54523 34077 ft 432 kts 343°
2026-05-08 15:56 17.91152 -64.56664 34073 ft 432 kts 343°
2026-05-08 15:56 17.96803 -64.58806 34072 ft 432 kts 343°
2026-05-08 15:57 18.02456 -64.60945 34073 ft 431 kts 343°
2026-05-08 15:57 18.08100 -64.63087 34071 ft 431 kts 343°
2026-05-08 15:58 18.13744 -64.65235 34072 ft 431 kts 343°
2026-05-08 15:58 18.19347 -64.67358 34077 ft 431 kts 343°
2026-05-08 15:59 18.24984 -64.69492 34076 ft 431 kts 342°
2026-05-08 15:59 18.30619 -64.71637 34081 ft 431 kts 342°
2026-05-08 16:00 18.36249 -64.73781 34084 ft 430 kts 342°
2026-05-08 16:00 18.41874 -64.75927 34080 ft 430 kts 342°
2026-05-08 16:01 18.47498 -64.78066 34079 ft 430 kts 342°
2026-05-08 16:01 18.53117 -64.80207 34075 ft 429 kts 342°
2026-05-08 16:02 18.58733 -64.82344 34071 ft 429 kts 342°
2026-05-08 16:02 18.64345 -64.84487 34067 ft 429 kts 342°
2026-05-08 16:03 18.69952 -64.86639 34061 ft 429 kts 342°
2026-05-08 16:03 18.75562 -64.88779 34058 ft 429 kts 342°
2026-05-08 16:04 18.81173 -64.90924 34057 ft 429 kts 342°
2026-05-08 16:04 18.86790 -64.93074 34051 ft 429 kts 342°
2026-05-08 16:05 18.92411 -64.95227 34058 ft 430 kts 342°
2026-05-08 16:05 18.98036 -64.97386 34062 ft 430 kts 342°
2026-05-08 16:06 19.03667 -64.99550 34064 ft 431 kts 342°
2026-05-08 16:06 19.09298 -65.01720 34063 ft 431 kts 342°
2026-05-08 16:07 19.14940 -65.03884 34065 ft 432 kts 342°
2026-05-08 16:07 19.20586 -65.06056 34066 ft 432 kts 342°
2026-05-08 16:08 19.25278 -65.07863 34063 ft 432 kts 342°
2026-05-08 16:08 19.30923 -65.10036 34062 ft 432 kts 342°
2026-05-08 16:09 19.36574 -65.12207 34063 ft 432 kts 342°
2026-05-08 16:09 19.42227 -65.14383 34067 ft 433 kts 341°
2026-05-08 16:10 19.47880 -65.16573 34066 ft 433 kts 341°
2026-05-08 16:10 19.53537 -65.18764 34070 ft 433 kts 341°
2026-05-08 16:11 19.59194 -65.20950 34068 ft 433 kts 342°
2026-05-08 16:11 19.64852 -65.23135 34070 ft 433 kts 342°
2026-05-08 16:12 19.70517 -65.25314 34073 ft 433 kts 341°
2026-05-08 16:12 19.76177 -65.27507 34073 ft 433 kts 341°
2026-05-08 16:13 19.81843 -65.29710 34072 ft 433 kts 341°
2026-05-08 16:13 19.87470 -65.31895 34078 ft 433 kts 341°
2026-05-08 16:14 19.93132 -65.34096 34079 ft 433 kts 341°
2026-05-08 16:14 19.98797 -65.36296 34081 ft 433 kts 341°
2026-05-08 16:15 20.04458 -65.38497 34080 ft 433 kts 341°
2026-05-08 16:15 20.10120 -65.40702 34087 ft 433 kts 341°
2026-05-08 16:16 20.15777 -65.42912 34087 ft 433 kts 341°
2026-05-08 16:16 20.21437 -65.45114 34092 ft 433 kts 341°
2026-05-08 16:17 20.27099 -65.47310 34088 ft 433 kts 341°
2026-05-08 16:17 20.32756 -65.49517 34094 ft 433 kts 341°
2026-05-08 16:18 20.38413 -65.51729 34093 ft 433 kts 341°
2026-05-08 16:18 20.44073 -65.53936 34095 ft 433 kts 341°
2026-05-08 16:19 20.49733 -65.56145 34094 ft 433 kts 341°
2026-05-08 16:19 20.55389 -65.58369 34094 ft 433 kts 341°
2026-05-08 16:20 20.61048 -65.60594 34094 ft 433 kts 341°
2026-05-08 16:20 20.66712 -65.62807 34099 ft 433 kts 341°
2026-05-08 16:21 20.72337 -65.65006 34096 ft 433 kts 341°
2026-05-08 16:21 20.77997 -65.67233 34097 ft 433 kts 341°
2026-05-08 16:22 20.83656 -65.69466 34098 ft 433 kts 341°
2026-05-08 16:22 20.89317 -65.71690 34089 ft 433 kts 341°
2026-05-08 16:23 20.94981 -65.73911 34089 ft 434 kts 341°
2026-05-08 16:23 21.00642 -65.76142 34095 ft 434 kts 341°
2026-05-08 16:24 21.06298 -65.78382 34094 ft 433 kts 340°
2026-05-08 16:24 21.11956 -65.80625 34095 ft 433 kts 340°
2026-05-08 16:25 21.17610 -65.82859 34094 ft 433 kts 341°
2026-05-08 16:25 21.23269 -65.85085 34098 ft 433 kts 340°
2026-05-08 16:26 21.28918 -65.87320 34099 ft 433 kts 340°
2026-05-08 16:26 21.34567 -65.89559 34100 ft 433 kts 340°
2026-05-08 16:27 21.40217 -65.91791 34099 ft 432 kts 340°
2026-05-08 16:27 21.45855 -65.94028 34100 ft 432 kts 340°
2026-05-08 16:28 21.51490 -65.96269 34101 ft 432 kts 340°
2026-05-08 16:28 21.57121 -65.98503 34102 ft 431 kts 340°
2026-05-08 16:29 21.62750 -66.00737 34100 ft 431 kts 340°
2026-05-08 16:29 21.68371 -66.02978 34102 ft 430 kts 340°
2026-05-08 16:30 21.73984 -66.05204 34101 ft 430 kts 340°
2026-05-08 16:30 21.79588 -66.07436 34098 ft 429 kts 340°
2026-05-08 16:31 21.85189 -66.09675 34100 ft 429 kts 340°
2026-05-08 16:31 21.90747 -66.11897 34099 ft 429 kts 340°
2026-05-08 16:32 21.96338 -66.14134 34094 ft 429 kts 340°
2026-05-08 16:32 22.01927 -66.16372 34099 ft 428 kts 340°
2026-05-08 16:33 22.07694 -66.17896 34096 ft 427 kts 349°
2026-05-08 16:33 22.13538 -66.19079 34100 ft 427 kts 349°
2026-05-08 16:34 22.19374 -66.20273 34097 ft 427 kts 349°
2026-05-08 16:34 22.25212 -66.21464 34100 ft 427 kts 349°
2026-05-08 16:35 22.31043 -66.22666 34103 ft 426 kts 349°
2026-05-08 16:35 22.36871 -66.23861 34097 ft 426 kts 349°
2026-05-08 16:36 22.42694 -66.25062 34098 ft 426 kts 349°
2026-05-08 16:36 22.48517 -66.26261 34098 ft 426 kts 349°
2026-05-08 16:37 22.54334 -66.27446 34099 ft 425 kts 349°
2026-05-08 16:37 22.60142 -66.28643 34100 ft 425 kts 349°
2026-05-08 16:38 22.65909 -66.29835 34101 ft 424 kts 350°
2026-05-08 16:38 22.71706 -66.31026 34102 ft 424 kts 350°
2026-05-08 16:39 22.77499 -66.32218 34107 ft 423 kts 350°
2026-05-08 16:39 22.83283 -66.33408 34100 ft 423 kts 350°
2026-05-08 16:40 22.89061 -66.34602 34100 ft 422 kts 350°
2026-05-08 16:40 22.94830 -66.35795 34101 ft 422 kts 350°
2026-05-08 16:41 23.00593 -66.36989 34100 ft 421 kts 350°
2026-05-08 16:42 23.09221 -66.38779 34103 ft 420 kts 350°
2026-05-08 16:42 23.14962 -66.39971 34105 ft 420 kts 351°
2026-05-08 16:43 23.20737 -66.41167 34092 ft 428 kts 348°
2026-05-08 16:43 23.26627 -66.42388 34096 ft 432 kts 348°
2026-05-08 16:44 23.32540 -66.43616 34093 ft 433 kts 348°
2026-05-08 16:44 23.38456 -66.44850 34096 ft 433 kts 348°
2026-05-08 16:45 23.44367 -66.46078 34098 ft 433 kts 348°
2026-05-08 16:45 23.50278 -66.47314 34092 ft 432 kts 348°
2026-05-08 16:46 23.56182 -66.48546 34095 ft 432 kts 348°
2026-05-08 16:46 23.62084 -66.49783 34090 ft 432 kts 348°
2026-05-08 16:47 23.67982 -66.51019 34091 ft 432 kts 348°
2026-05-08 16:47 23.73879 -66.52253 34084 ft 431 kts 348°
2026-05-08 16:48 23.79777 -66.53480 34086 ft 431 kts 348°
2026-05-08 16:48 23.85674 -66.54709 34086 ft 431 kts 348°
2026-05-08 16:49 23.91568 -66.55947 34089 ft 431 kts 348°
2026-05-08 16:49 23.97460 -66.57189 34085 ft 431 kts 348°
2026-05-08 16:50 24.03352 -66.58431 34087 ft 431 kts 348°
2026-05-08 16:50 24.09246 -66.59667 34086 ft 431 kts 348°
2026-05-08 16:51 24.15136 -66.60907 34089 ft 431 kts 348°
2026-05-08 16:51 24.21025 -66.62148 34093 ft 431 kts 348°
2026-05-08 16:52 24.26915 -66.63397 34092 ft 431 kts 348°
2026-05-08 16:52 24.32800 -66.64647 34092 ft 431 kts 348°
2026-05-08 16:53 24.41598 -66.66498 34090 ft 431 kts 348°
2026-05-08 16:53 24.47487 -66.67743 34090 ft 431 kts 348°
2026-05-08 16:54 24.53377 -66.68992 34091 ft 431 kts 348°
2026-05-08 16:54 24.59267 -66.70244 34089 ft 431 kts 348°
2026-05-08 16:55 24.65160 -66.71492 34087 ft 431 kts 348°
2026-05-08 16:55 24.71054 -66.72746 34091 ft 431 kts 348°
2026-05-08 16:56 24.75956 -66.73785 34093 ft 432 kts 348°
2026-05-08 16:56 24.81856 -66.75037 34162 ft 433 kts 348°
2026-05-08 16:57 24.84821 -66.75669 34360 ft 434 kts 348°
2026-05-08 16:57 24.87783 -66.76303 34590 ft 434 kts 348°
2026-05-08 16:57 24.90745 -66.76933 34821 ft 433 kts 348°
2026-05-08 16:57 24.93701 -66.77559 35054 ft 432 kts 347°
2026-05-08 16:58 24.96652 -66.78189 35291 ft 432 kts 347°
2026-05-08 16:58 24.99599 -66.78822 35523 ft 431 kts 347°
2026-05-08 16:58 25.02537 -66.79453 35754 ft 430 kts 347°
2026-05-08 16:58 25.05472 -66.80083 35979 ft 429 kts 347°
2026-05-08 16:59 25.08405 -66.80714 36086 ft 429 kts 347°
2026-05-08 16:59 25.11338 -66.81344 36099 ft 429 kts 347°
2026-05-08 16:59 25.17191 -66.82592 36097 ft 428 kts 347°
2026-05-08 17:00 25.23038 -66.83849 36099 ft 428 kts 347°
2026-05-08 17:00 25.28884 -66.85107 36098 ft 428 kts 347°
2026-05-08 17:01 25.34729 -66.86364 36101 ft 428 kts 347°
2026-05-08 17:01 25.40577 -66.87617 36104 ft 428 kts 347°
2026-05-08 17:02 25.46431 -66.88870 36107 ft 428 kts 347°
2026-05-08 17:02 25.52242 -66.90125 36108 ft 428 kts 346°
2026-05-08 17:03 25.58126 -66.91400 36108 ft 428 kts 346°
2026-05-08 17:03 25.63972 -66.92661 36107 ft 428 kts 346°
2026-05-08 17:04 25.69779 -66.93916 36107 ft 428 kts 346°
2026-05-08 17:04 25.75666 -66.95191 36108 ft 428 kts 346°
2026-05-08 17:05 25.81514 -66.96451 36112 ft 428 kts 346°
2026-05-08 17:05 25.87325 -66.97700 36115 ft 428 kts 346°
2026-05-08 17:06 25.93170 -66.98967 36113 ft 428 kts 346°
2026-05-08 17:06 25.99013 -67.00242 36111 ft 428 kts 346°
2026-05-08 17:07 26.04859 -67.01511 36109 ft 428 kts 346°
2026-05-08 17:07 26.10699 -67.02790 36111 ft 428 kts 346°
2026-05-08 17:08 26.16541 -67.04065 36113 ft 427 kts 346°
2026-05-08 17:08 26.22375 -67.05331 36109 ft 427 kts 346°
2026-05-08 17:09 26.28208 -67.06608 36108 ft 427 kts 346°
2026-05-08 17:09 26.34039 -67.07883 36109 ft 427 kts 346°
2026-05-08 17:10 26.39867 -67.09154 36108 ft 427 kts 345°
2026-05-08 17:10 26.45694 -67.10431 36104 ft 427 kts 345°
2026-05-08 17:11 26.51520 -67.11708 36106 ft 427 kts 345°
2026-05-08 17:11 26.57342 -67.12984 36108 ft 426 kts 345°
2026-05-08 17:12 26.63160 -67.14265 36106 ft 426 kts 345°
2026-05-08 17:12 26.68982 -67.15540 36100 ft 426 kts 345°
2026-05-08 17:13 26.74802 -67.16821 36104 ft 426 kts 345°
2026-05-08 17:13 26.80624 -67.18104 36100 ft 426 kts 345°
2026-05-08 17:14 26.86446 -67.19379 36100 ft 426 kts 345°
2026-05-08 17:14 26.92269 -67.20665 36105 ft 426 kts 345°
2026-05-08 17:15 26.98052 -67.21949 36105 ft 426 kts 345°
2026-05-08 17:15 27.03875 -67.23241 36109 ft 427 kts 345°
2026-05-08 17:16 27.09698 -67.24528 36104 ft 426 kts 345°
2026-05-08 17:16 27.15516 -67.25812 36106 ft 426 kts 345°
2026-05-08 17:17 27.21330 -67.27097 36110 ft 426 kts 345°
2026-05-08 17:17 27.27137 -67.28388 36105 ft 425 kts 345°
2026-05-08 17:18 27.32939 -67.29680 36101 ft 425 kts 344°
2026-05-08 17:18 27.38733 -67.30978 36103 ft 425 kts 344°
2026-05-08 17:19 27.44529 -67.32271 36102 ft 424 kts 344°
2026-05-08 17:19 27.50321 -67.33557 36102 ft 424 kts 344°
2026-05-08 17:20 27.56109 -67.34855 36102 ft 424 kts 344°
2026-05-08 17:20 27.61894 -67.36150 36101 ft 424 kts 344°
2026-05-08 17:21 27.67679 -67.37444 36098 ft 424 kts 344°
2026-05-08 17:21 27.73463 -67.38733 36096 ft 424 kts 344°
2026-05-08 17:22 27.79246 -67.40032 36095 ft 423 kts 344°
2026-05-08 17:22 27.85023 -67.41336 36091 ft 423 kts 344°
2026-05-08 17:23 27.90802 -67.42638 36093 ft 423 kts 344°
2026-05-08 17:23 27.96579 -67.43939 36091 ft 423 kts 343°
2026-05-08 17:24 28.02356 -67.45239 36090 ft 423 kts 343°
2026-05-08 17:24 28.08094 -67.46524 36086 ft 423 kts 343°
2026-05-08 17:25 28.13866 -67.47831 36088 ft 423 kts 343°
2026-05-08 17:25 28.19636 -67.49137 36088 ft 423 kts 343°
2026-05-08 17:26 28.25408 -67.50445 36086 ft 423 kts 343°
2026-05-08 17:26 28.31179 -67.51755 36087 ft 423 kts 343°
2026-05-08 17:27 28.36951 -67.53064 36085 ft 423 kts 343°
2026-05-08 17:27 28.42719 -67.54372 36083 ft 423 kts 343°
2026-05-08 17:28 28.48491 -67.55679 36076 ft 423 kts 343°
2026-05-08 17:28 28.54258 -67.56993 36074 ft 423 kts 343°
2026-05-08 17:29 28.60025 -67.58303 36074 ft 423 kts 343°
2026-05-08 17:29 28.65791 -67.59621 36070 ft 423 kts 343°
2026-05-08 17:30 28.71554 -67.60945 36065 ft 422 kts 342°
2026-05-08 17:30 28.77315 -67.62266 36069 ft 422 kts 342°
2026-05-08 17:31 28.83077 -67.63581 36060 ft 422 kts 342°
2026-05-08 17:31 28.88837 -67.64895 36061 ft 422 kts 342°
2026-05-08 17:32 28.94594 -67.66216 36071 ft 422 kts 342°
2026-05-08 17:32 29.00348 -67.67541 36064 ft 422 kts 342°
2026-05-08 17:33 29.06101 -67.68858 36068 ft 422 kts 342°
2026-05-08 17:33 29.11853 -67.70184 36069 ft 421 kts 342°
2026-05-08 17:34 29.17600 -67.71514 36062 ft 421 kts 342°
2026-05-08 17:34 29.23350 -67.72839 36066 ft 421 kts 342°
2026-05-08 17:35 29.29098 -67.74164 36064 ft 421 kts 342°
2026-05-08 17:35 29.34806 -67.75476 36070 ft 421 kts 342°
2026-05-08 17:36 29.40553 -67.76804 36070 ft 421 kts 342°
2026-05-08 17:36 29.46298 -67.78142 36067 ft 421 kts 342°
2026-05-08 17:37 29.52042 -67.79477 36071 ft 421 kts 341°
2026-05-08 17:37 29.57788 -67.80807 36068 ft 421 kts 341°
2026-05-08 17:38 29.63533 -67.82149 36065 ft 421 kts 341°
2026-05-08 17:38 29.69277 -67.83489 36066 ft 421 kts 341°
2026-05-08 17:39 29.75025 -67.84825 36067 ft 421 kts 341°
2026-05-08 17:39 29.80772 -67.86166 36063 ft 421 kts 341°
2026-05-08 17:40 29.86520 -67.87515 36065 ft 422 kts 341°
2026-05-08 17:40 29.92278 -67.88857 36064 ft 422 kts 341°
2026-05-08 17:41 29.98034 -67.90203 36064 ft 422 kts 341°
2026-05-08 17:41 30.03790 -67.91558 36063 ft 422 kts 341°
2026-05-08 17:42 30.09545 -67.92917 36061 ft 422 kts 341°
2026-05-08 17:42 30.15300 -67.94269 36061 ft 422 kts 341°
2026-05-08 17:43 30.21013 -67.95610 36052 ft 422 kts 341°
2026-05-08 17:43 30.26762 -67.96960 36044 ft 422 kts 340°
2026-05-08 17:44 30.32512 -67.98316 36044 ft 422 kts 340°
2026-05-08 17:44 30.37328 -67.99451 36048 ft 422 kts 340°
2026-05-08 17:45 30.43078 -68.00812 36049 ft 422 kts 340°
2026-05-08 17:45 30.48794 -68.02160 36046 ft 422 kts 340°
2026-05-08 17:46 30.54545 -68.03520 36043 ft 422 kts 340°
2026-05-08 17:46 30.60292 -68.04889 36044 ft 421 kts 340°
2026-05-08 17:47 30.66032 -68.06257 36047 ft 421 kts 340°
2026-05-08 17:47 30.71778 -68.07622 36046 ft 421 kts 340°
2026-05-08 17:48 30.77523 -68.08986 36051 ft 421 kts 340°
2026-05-08 17:48 30.83270 -68.10353 36053 ft 421 kts 340°
2026-05-08 17:49 30.89010 -68.11722 36040 ft 421 kts 340°
2026-05-08 17:49 30.94749 -68.13097 36045 ft 421 kts 339°
2026-05-08 17:50 31.00487 -68.14476 36038 ft 421 kts 339°
2026-05-08 17:50 31.06226 -68.15849 36040 ft 421 kts 339°
2026-05-08 17:51 31.11966 -68.17229 36041 ft 421 kts 339°
2026-05-08 17:51 31.17710 -68.18606 36039 ft 421 kts 339°
2026-05-08 17:52 31.23449 -68.19982 36040 ft 421 kts 339°
2026-05-08 17:53 31.32049 -68.22050 36036 ft 420 kts 339°
2026-05-08 17:53 31.37743 -68.23420 36033 ft 421 kts 339°
2026-05-08 17:54 31.43473 -68.24814 36033 ft 421 kts 339°
2026-05-08 17:54 31.49207 -68.26195 36031 ft 421 kts 339°
2026-05-08 17:55 31.54940 -68.27586 36024 ft 420 kts 339°
2026-05-08 17:55 31.60668 -68.28982 36022 ft 421 kts 339°
2026-05-08 17:56 31.66399 -68.30368 36020 ft 420 kts 339°
2026-05-08 17:56 31.72128 -68.31759 36016 ft 420 kts 338°
2026-05-08 17:57 31.77859 -68.33158 36020 ft 421 kts 338°
2026-05-08 17:57 31.83594 -68.34560 36015 ft 421 kts 338°
2026-05-08 17:58 31.89332 -68.35958 36017 ft 421 kts 338°
2026-05-08 17:58 31.95069 -68.37358 36002 ft 421 kts 338°
2026-05-08 17:59 32.00808 -68.38754 36016 ft 421 kts 338°
2026-05-08 17:59 32.06543 -68.40161 36002 ft 421 kts 338°
2026-05-08 18:00 32.12277 -68.41569 36012 ft 421 kts 338°
2026-05-08 18:00 32.20878 -68.43683 36015 ft 421 kts 338°
2026-05-08 18:01 32.26610 -68.45091 36013 ft 421 kts 338°
2026-05-08 18:01 32.32347 -68.46498 36021 ft 421 kts 338°
2026-05-08 18:02 32.37112 -68.47673 36017 ft 421 kts 338°
2026-05-08 18:02 32.43811 -68.49334 36013 ft 421 kts 338°
2026-05-08 18:03 32.49541 -68.50749 36011 ft 421 kts 338°
2026-05-08 18:03 32.55271 -68.52169 36015 ft 420 kts 338°
2026-05-08 18:04 32.60997 -68.53595 36014 ft 420 kts 338°
2026-05-08 18:04 32.66722 -68.55018 36008 ft 420 kts 338°
2026-05-08 18:05 32.72409 -68.56423 36012 ft 420 kts 337°
2026-05-08 18:05 32.78167 -68.57851 36023 ft 420 kts 337°
2026-05-08 18:06 32.83885 -68.59277 36016 ft 420 kts 337°
2026-05-08 18:06 32.89599 -68.60713 36016 ft 419 kts 337°
2026-05-08 18:07 32.95274 -68.62131 36018 ft 419 kts 337°
2026-05-08 18:07 33.00985 -68.63558 36021 ft 419 kts 337°
2026-05-08 18:08 33.06689 -68.64990 36022 ft 419 kts 337°
2026-05-08 18:08 33.12393 -68.66429 36025 ft 419 kts 337°
2026-05-08 18:09 33.18090 -68.67865 36022 ft 419 kts 337°
2026-05-08 18:09 33.23791 -68.69292 36024 ft 418 kts 337°
2026-05-08 18:10 33.29482 -68.70719 36023 ft 418 kts 336°
2026-05-08 18:10 33.35172 -68.72150 36021 ft 418 kts 336°
2026-05-08 18:11 33.40854 -68.73583 36021 ft 417 kts 336°
2026-05-08 18:11 33.46530 -68.75033 36023 ft 417 kts 336°
2026-05-08 18:12 33.52206 -68.76471 36024 ft 417 kts 336°
2026-05-08 18:12 33.57882 -68.77904 36029 ft 417 kts 336°
2026-05-08 18:13 33.63514 -68.79340 36032 ft 416 kts 336°
2026-05-08 18:13 33.69179 -68.80778 36032 ft 416 kts 336°
2026-05-08 18:14 33.74849 -68.82213 36030 ft 416 kts 336°
2026-05-08 18:14 33.80514 -68.83652 36034 ft 416 kts 336°
2026-05-08 18:15 33.86174 -68.85100 36032 ft 416 kts 336°
2026-05-08 18:15 33.91833 -68.86550 36033 ft 416 kts 336°
2026-05-08 18:16 33.97489 -68.88005 36031 ft 416 kts 336°
2026-05-08 18:16 34.03147 -68.89450 36031 ft 416 kts 336°
2026-05-08 18:17 34.08804 -68.90900 36031 ft 416 kts 335°
2026-05-08 18:17 34.14459 -68.92354 36038 ft 415 kts 335°
2026-05-08 18:18 34.20106 -68.93810 36043 ft 415 kts 335°
2026-05-08 18:18 34.25753 -68.95260 36044 ft 415 kts 335°
2026-05-08 18:19 34.31389 -68.96724 36050 ft 414 kts 335°
2026-05-08 18:19 34.37026 -68.98185 36049 ft 414 kts 335°
2026-05-08 18:20 34.42656 -68.99640 36050 ft 413 kts 335°
2026-05-08 18:20 34.48235 -69.01086 36049 ft 413 kts 335°
2026-05-08 18:21 34.53848 -69.02543 36053 ft 412 kts 335°
2026-05-08 18:21 34.59458 -69.03995 36054 ft 412 kts 335°
2026-05-08 18:22 34.65062 -69.05453 36054 ft 412 kts 335°
2026-05-08 18:22 34.70657 -69.06913 36057 ft 411 kts 334°
2026-05-08 18:23 34.76248 -69.08375 36054 ft 410 kts 334°
2026-05-08 18:23 34.81828 -69.09837 36055 ft 410 kts 334°
2026-05-08 18:24 34.87408 -69.11299 36053 ft 410 kts 334°
2026-05-08 18:24 34.92983 -69.12755 36058 ft 410 kts 334°
2026-05-08 18:25 34.98558 -69.14217 36060 ft 410 kts 334°
2026-05-08 18:25 35.04130 -69.15686 36056 ft 410 kts 334°
2026-05-08 18:26 35.09702 -69.17152 36052 ft 410 kts 334°
2026-05-08 18:26 35.15241 -69.18609 36055 ft 410 kts 334°
2026-05-08 18:27 35.19916 -69.19842 36057 ft 410 kts 333°
2026-05-08 18:27 35.26404 -69.21561 36058 ft 411 kts 333°
2026-05-08 18:28 35.31989 -69.23036 36054 ft 411 kts 333°
2026-05-08 18:28 35.37578 -69.24527 36057 ft 411 kts 333°
2026-05-08 18:29 35.43174 -69.26007 36050 ft 412 kts 333°
2026-05-08 18:29 35.48775 -69.27487 36049 ft 412 kts 333°
2026-05-08 18:30 35.54370 -69.28981 36052 ft 412 kts 333°
2026-05-08 18:30 35.59971 -69.30477 36061 ft 412 kts 333°
2026-05-08 18:31 35.65576 -69.31976 36066 ft 412 kts 333°
2026-05-08 18:31 35.71185 -69.33471 36066 ft 412 kts 333°
2026-05-08 18:32 35.76797 -69.34971 36071 ft 413 kts 333°
2026-05-08 18:32 35.82409 -69.36480 36069 ft 413 kts 333°
2026-05-08 18:33 35.87988 -69.37976 36065 ft 413 kts 333°
2026-05-08 18:33 35.93605 -69.39486 36063 ft 413 kts 333°
2026-05-08 18:34 35.99224 -69.41003 36060 ft 413 kts 333°
2026-05-08 18:34 36.04846 -69.42514 36062 ft 413 kts 333°
2026-05-08 18:35 36.09552 -69.43788 36068 ft 413 kts 333°
2026-05-08 18:35 36.15133 -69.45303 36066 ft 413 kts 333°
2026-05-08 18:36 36.20755 -69.46826 36077 ft 414 kts 333°
2026-05-08 18:36 36.26378 -69.48349 36079 ft 414 kts 333°
2026-05-08 18:37 36.32005 -69.49870 36079 ft 414 kts 333°
2026-05-08 18:37 36.37628 -69.51402 36075 ft 414 kts 333°
2026-05-08 18:38 36.43256 -69.52934 36069 ft 414 kts 334°
2026-05-08 18:38 36.48890 -69.54459 36063 ft 414 kts 334°
2026-05-08 18:39 36.54521 -69.56001 36057 ft 414 kts 334°
2026-05-08 18:39 36.60155 -69.57548 36060 ft 415 kts 334°
2026-05-08 18:40 36.65791 -69.59103 36063 ft 415 kts 334°
2026-05-08 18:40 36.71431 -69.60649 36061 ft 415 kts 334°
2026-05-08 18:41 36.77078 -69.62202 36062 ft 416 kts 334°
2026-05-08 18:41 36.82727 -69.63762 36061 ft 416 kts 334°
2026-05-08 18:42 36.88383 -69.65323 36065 ft 417 kts 334°
2026-05-08 18:42 36.94050 -69.66880 36053 ft 417 kts 334°
2026-05-08 18:43 36.99679 -69.68432 36050 ft 417 kts 334°
2026-05-08 18:43 37.05347 -69.70013 36050 ft 417 kts 334°
2026-05-08 18:44 37.11021 -69.71588 36050 ft 418 kts 334°
2026-05-08 18:44 37.16699 -69.73167 36056 ft 418 kts 334°
2026-05-08 18:45 37.22382 -69.74745 36055 ft 418 kts 334°
2026-05-08 18:45 37.28070 -69.76315 36058 ft 419 kts 334°
2026-05-08 18:46 37.33757 -69.77898 36069 ft 419 kts 334°
2026-05-08 18:46 37.39443 -69.79494 36068 ft 419 kts 334°
2026-05-08 18:47 37.45134 -69.81087 36067 ft 419 kts 334°
2026-05-08 18:47 37.50824 -69.82688 36065 ft 419 kts 334°
2026-05-08 18:48 37.56516 -69.84289 36069 ft 419 kts 334°
2026-05-08 18:48 37.62163 -69.85883 36063 ft 419 kts 334°
2026-05-08 18:49 37.67853 -69.87483 36066 ft 419 kts 334°
2026-05-08 18:49 37.73541 -69.89084 36070 ft 419 kts 334°
2026-05-08 18:50 37.79222 -69.90693 36071 ft 418 kts 334°
2026-05-08 18:50 37.84906 -69.92299 36067 ft 419 kts 334°
2026-05-08 18:51 37.90590 -69.93904 36067 ft 418 kts 334°
2026-05-08 18:51 37.96264 -69.95527 36061 ft 418 kts 334°
2026-05-08 18:52 38.01943 -69.97139 36062 ft 418 kts 334°
2026-05-08 18:52 38.07617 -69.98754 36059 ft 418 kts 334°
2026-05-08 18:53 38.13287 -70.00369 36056 ft 417 kts 334°
2026-05-08 18:53 38.18954 -70.01990 36046 ft 418 kts 334°
2026-05-08 18:54 38.24626 -70.03612 36040 ft 418 kts 334°
2026-05-08 18:54 38.30282 -70.05290 36038 ft 411 kts 329°
2026-05-08 18:55 38.35119 -70.08510 36035 ft 380 kts 310°
2026-05-08 18:55 38.37091 -70.10708 36029 ft 376 kts 308°
2026-05-08 18:56 38.41022 -70.15136 36026 ft 378 kts 309°
2026-05-08 18:56 38.44978 -70.19549 36023 ft 378 kts 309°
2026-05-08 18:57 38.48908 -70.23950 36021 ft 378 kts 309°
2026-05-08 18:57 38.52861 -70.28397 36020 ft 379 kts 309°
2026-05-08 18:58 38.56809 -70.32860 36019 ft 380 kts 309°
2026-05-08 18:58 38.60774 -70.37331 36011 ft 380 kts 309°
2026-05-08 18:59 38.64745 -70.41814 36027 ft 381 kts 309°
2026-05-08 18:59 38.68718 -70.46312 36023 ft 382 kts 309°
2026-05-08 19:00 38.72692 -70.50824 36027 ft 382 kts 309°
2026-05-08 19:00 38.76676 -70.55344 36030 ft 383 kts 309°
2026-05-08 19:01 38.80662 -70.59880 36030 ft 383 kts 309°
2026-05-08 19:01 38.84652 -70.64428 36029 ft 384 kts 309°
2026-05-08 19:02 38.88648 -70.68976 36030 ft 384 kts 309°
2026-05-08 19:02 38.92617 -70.73511 36028 ft 385 kts 309°
2026-05-08 19:03 38.96612 -70.78093 36025 ft 385 kts 309°
2026-05-08 19:03 39.00613 -70.82674 36024 ft 386 kts 309°
2026-05-08 19:04 39.04623 -70.87266 36025 ft 386 kts 309°
2026-05-08 19:04 39.08626 -70.91872 36023 ft 386 kts 309°
2026-05-08 19:05 39.12625 -70.96491 36026 ft 386 kts 309°
2026-05-08 19:05 39.16631 -71.01113 36029 ft 387 kts 310°
2026-05-08 19:06 39.20645 -71.05743 36029 ft 387 kts 310°
2026-05-08 19:06 39.24662 -71.10387 36024 ft 388 kts 310°
2026-05-08 19:07 39.28680 -71.15045 36024 ft 388 kts 310°
2026-05-08 19:07 39.32699 -71.19713 36022 ft 389 kts 310°
2026-05-08 19:08 39.36721 -71.24393 36022 ft 389 kts 310°
2026-05-08 19:08 39.40744 -71.29092 36020 ft 390 kts 310°
2026-05-08 19:09 39.44133 -71.34359 36017 ft 377 kts 296°
2026-05-08 19:09 39.46868 -71.40146 36018 ft 377 kts 296°
2026-05-08 19:10 39.49604 -71.45941 36018 ft 377 kts 296°
2026-05-08 19:10 39.52332 -71.51744 36021 ft 377 kts 296°
2026-05-08 19:11 39.55064 -71.57552 36025 ft 377 kts 296°
2026-05-08 19:11 39.57791 -71.63367 36026 ft 377 kts 296°
2026-05-08 19:12 39.60522 -71.69183 36021 ft 378 kts 296°
2026-05-08 19:12 39.63246 -71.75003 36019 ft 378 kts 296°
2026-05-08 19:13 39.65964 -71.80837 36021 ft 378 kts 296°
2026-05-08 19:13 39.68670 -71.86676 36022 ft 378 kts 296°
2026-05-08 19:14 39.71382 -71.92517 36022 ft 378 kts 296°
2026-05-08 19:14 39.74090 -71.98363 36019 ft 378 kts 296°
2026-05-08 19:15 39.76740 -72.04198 36015 ft 377 kts 295°
2026-05-08 19:15 39.79370 -72.10148 36014 ft 377 kts 295°
2026-05-08 19:16 39.81960 -72.16022 36014 ft 377 kts 295°
2026-05-08 19:16 39.84571 -72.21934 36018 ft 377 kts 295°
2026-05-08 19:17 39.87200 -72.27888 36019 ft 377 kts 295°
2026-05-08 19:17 39.89791 -72.33759 36015 ft 376 kts 295°
2026-05-08 19:18 39.92399 -72.39671 36013 ft 376 kts 295°
2026-05-08 19:18 39.94998 -72.45584 36013 ft 376 kts 295°
2026-05-08 19:19 39.97594 -72.51497 36007 ft 376 kts 295°
2026-05-08 19:19 40.00256 -72.57365 36004 ft 376 kts 296°
2026-05-08 19:20 40.02939 -72.63216 36006 ft 376 kts 296°
2026-05-08 19:20 40.05603 -72.69076 36002 ft 375 kts 296°
2026-05-08 19:21 40.08250 -72.74944 36001 ft 375 kts 296°
2026-05-08 19:21 40.10903 -72.80807 35996 ft 375 kts 297°
2026-05-08 19:22 40.13744 -72.86548 35994 ft 377 kts 298°
2026-05-08 19:22 40.16675 -72.92237 35983 ft 377 kts 299°
2026-05-08 19:23 40.19580 -72.97954 35979 ft 378 kts 298°
2026-05-08 19:23 40.22445 -73.03661 35973 ft 378 kts 298°
2026-05-08 19:24 40.24847 -73.08493 35973 ft 378 kts 298°
2026-05-08 19:24 40.27723 -73.14270 35971 ft 379 kts 298°
2026-05-08 19:25 40.30608 -73.20055 35976 ft 379 kts 298°
2026-05-08 19:25 40.33507 -73.25837 35978 ft 381 kts 300°
2026-05-08 19:26 40.36679 -73.31424 35978 ft 383 kts 302°
2026-05-08 19:26 40.39981 -73.36911 35979 ft 383 kts 303°
2026-05-08 19:27 40.43256 -73.42431 35982 ft 383 kts 302°
2026-05-08 19:27 40.46483 -73.47992 35976 ft 383 kts 302°
2026-05-08 19:28 40.49680 -73.53527 35985 ft 383 kts 302°
2026-05-08 19:28 40.52905 -73.59094 35991 ft 383 kts 302°
2026-05-08 19:29 40.56122 -73.64661 35993 ft 382 kts 302°
2026-05-08 19:29 40.59325 -73.70234 35996 ft 382 kts 302°
2026-05-08 19:30 40.63140 -73.75167 35993 ft 397 kts 321°
2026-05-08 19:30 40.65680 -73.76720 35991 ft 411 kts 334°
2026-05-08 19:30 40.68543 -73.77432 35987 ft 428 kts 347°
2026-05-08 19:31 40.74528 -73.77707 35962 ft 431 kts 348°
2026-05-08 19:31 40.80522 -73.77981 35961 ft 431 kts 348°
2026-05-08 19:32 40.86534 -73.78151 35963 ft 439 kts 354°
2026-05-08 19:32 40.92669 -73.77019 35972 ft 446 kts 359°
2026-05-08 19:33 40.98809 -73.75768 35979 ft 447 kts 359°
2026-05-08 19:33 41.04958 -73.74524 35979 ft 447 kts 358°
2026-05-08 19:34 41.11104 -73.73298 35974 ft 447 kts 358°
2026-05-08 19:34 41.17256 -73.72063 35978 ft 447 kts 359°
2026-05-08 19:35 41.23410 -73.70826 35968 ft 447 kts 359°
2026-05-08 19:35 41.29566 -73.69583 35974 ft 447 kts 359°
2026-05-08 19:36 41.35726 -73.68338 35977 ft 448 kts 359°
2026-05-08 19:36 41.41886 -73.67097 35976 ft 448 kts 359°
2026-05-08 19:37 41.48053 -73.65856 35976 ft 449 kts 359°
2026-05-08 19:37 41.54185 -73.64615 35952 ft 448 kts 359°
2026-05-08 19:38 41.60356 -73.63355 35950 ft 449 kts 359°
2026-05-08 19:38 41.66525 -73.62098 35955 ft 449 kts 359°
2026-05-08 19:39 41.72700 -73.60841 35954 ft 449 kts 359°
2026-05-08 19:39 41.78868 -73.59581 35947 ft 448 kts 359°
2026-05-08 19:40 41.85037 -73.58325 35934 ft 448 kts 359°
2026-05-08 19:40 41.91205 -73.57054 35931 ft 449 kts 359°
2026-05-08 19:41 41.97371 -73.55778 35928 ft 448 kts 359°
2026-05-08 19:41 42.03538 -73.54500 35930 ft 448 kts 359°
2026-05-08 19:42 42.09702 -73.53231 35930 ft 448 kts 359°
2026-05-08 19:42 42.15865 -73.51954 35924 ft 448 kts 359°
2026-05-08 19:43 42.22029 -73.50677 35928 ft 448 kts 359°
2026-05-08 19:43 42.28196 -73.49401 35934 ft 448 kts 360°
2026-05-08 19:44 42.34365 -73.48116 35941 ft 449 kts 360°
2026-05-08 19:44 42.40537 -73.46826 35943 ft 449 kts 360°
2026-05-08 19:45 42.46706 -73.45529 35946 ft 449 kts
2026-05-08 19:45 42.52875 -73.44234 35945 ft 448 kts
2026-05-08 19:46 42.59041 -73.42945 35945 ft 448 kts
2026-05-08 19:46 42.68288 -73.41004 35946 ft 448 kts
2026-05-08 19:47 42.74412 -73.39717 35951 ft 448 kts
2026-05-08 19:47 42.77496 -73.39064 35748 ft 448 kts
2026-05-08 19:47 42.80578 -73.38409 35512 ft 447 kts
2026-05-08 19:48 42.83650 -73.37754 35278 ft 446 kts
2026-05-08 19:48 42.86716 -73.37102 35046 ft 446 kts
2026-05-08 19:48 42.89779 -73.36451 34820 ft 445 kts
2026-05-08 19:48 42.92838 -73.35800 34589 ft 444 kts
2026-05-08 19:49 42.95890 -73.35149 34367 ft 444 kts
2026-05-08 19:49 42.98936 -73.34596 34143 ft 437 kts 355°
2026-05-08 19:49 43.01934 -73.34641 33918 ft 427 kts 347°
2026-05-08 19:49 43.04901 -73.34943 33652 ft 427 kts 347°
2026-05-08 19:50 43.07869 -73.35215 33380 ft 427 kts 348°
2026-05-08 19:50 43.10834 -73.35468 33114 ft 427 kts 348°
2026-05-08 19:50 43.13799 -73.35715 32850 ft 426 kts 348°
2026-05-08 19:50 43.16759 -73.35964 32579 ft 426 kts 348°
2026-05-08 19:51 43.19714 -73.36216 32311 ft 426 kts 348°
2026-05-08 19:51 43.22669 -73.36472 32045 ft 425 kts 348°
2026-05-08 19:51 43.25616 -73.36733 31801 ft 424 kts 347°
2026-05-08 19:51 43.28559 -73.36999 31547 ft 424 kts 347°
2026-05-08 19:52 43.31498 -73.37268 31294 ft 423 kts 347°
2026-05-08 19:52 43.34429 -73.37538 31044 ft 422 kts 347°
2026-05-08 19:52 43.37359 -73.37807 30803 ft 422 kts 347°
2026-05-08 19:52 43.40284 -73.38071 30562 ft 421 kts 347°
2026-05-08 19:53 43.43205 -73.38335 30321 ft 420 kts 347°
2026-05-08 19:53 43.46123 -73.38598 30085 ft 420 kts 347°
2026-05-08 19:53 43.49036 -73.38860 29824 ft 419 kts 347°
2026-05-08 19:53 43.51947 -73.39123 29539 ft 419 kts 347°
2026-05-08 19:54 43.54860 -73.39388 29252 ft 420 kts 347°
2026-05-08 19:54 43.57779 -73.39653 28975 ft 420 kts 347°
2026-05-08 19:54 43.60698 -73.39921 28694 ft 421 kts 348°
2026-05-08 19:54 43.63627 -73.40192 28421 ft 422 kts 348°
2026-05-08 19:55 43.66560 -73.40463 28144 ft 423 kts 348°
2026-05-08 19:55 43.69495 -73.40738 27874 ft 423 kts 348°
2026-05-08 19:55 43.72428 -73.41026 27603 ft 422 kts 347°
2026-05-08 19:55 43.75352 -73.41341 27337 ft 421 kts 347°
2026-05-08 19:56 43.78263 -73.41671 27077 ft 419 kts 347°
2026-05-08 19:56 43.81160 -73.42010 26815 ft 417 kts 347°
2026-05-08 19:56 43.84048 -73.42346 26556 ft 416 kts 347°
2026-05-08 19:56 43.86927 -73.42676 26304 ft 415 kts 348°
2026-05-08 19:57 43.89776 -73.42995 26046 ft 405 kts 348°
2026-05-08 19:57 43.92502 -73.43294 25791 ft 392 kts 348°
2026-05-08 19:57 43.95212 -73.43596 25536 ft 380 kts 348°
2026-05-08 19:57 43.97775 -73.43886 25292 ft 369 kts 348°
2026-05-08 19:58 44.00295 -73.44173 25049 ft 360 kts 347°
2026-05-08 19:58 44.02850 -73.44484 24813 ft 379 kts 348°
2026-05-08 19:58 44.05548 -73.44828 24572 ft 397 kts 348°
2026-05-08 19:58 44.08296 -73.45155 24327 ft 391 kts 348°
2026-05-08 19:59 44.10962 -73.45445 24088 ft 378 kts 349°
2026-05-08 19:59 44.13540 -73.45717 23844 ft 366 kts 349°
2026-05-08 19:59 44.16038 -73.45986 23614 ft 354 kts 348°
2026-05-08 19:59 44.18459 -73.46254 23366 ft 344 kts 348°
2026-05-08 20:00 44.20818 -73.46524 23085 ft 335 kts 348°
2026-05-08 20:00 44.23113 -73.46792 22799 ft 327 kts 348°
2026-05-08 20:00 44.25362 -73.47055 22544 ft 322 kts 348°
2026-05-08 20:00 44.27588 -73.47316 22257 ft 320 kts 348°
2026-05-08 20:01 44.29808 -73.47578 21985 ft 320 kts 348°
2026-05-08 20:01 44.32021 -73.47840 21715 ft 319 kts 349°
2026-05-08 20:01 44.34230 -73.48105 21451 ft 318 kts 349°
2026-05-08 20:01 44.36437 -73.48367 21187 ft 318 kts 349°
2026-05-08 20:02 44.38641 -73.48624 20927 ft 318 kts 349°
2026-05-08 20:02 44.40842 -73.48880 20660 ft 317 kts 349°
2026-05-08 20:02 44.43039 -73.49132 20396 ft 317 kts 350°
2026-05-08 20:02 44.45234 -73.49380 20145 ft 316 kts 350°
2026-05-08 20:03 44.47422 -73.49629 19890 ft 315 kts 350°
2026-05-08 20:03 44.49609 -73.49882 19636 ft 315 kts 350°
2026-05-08 20:03 44.51792 -73.50136 19388 ft 315 kts 350°
2026-05-08 20:03 44.53972 -73.50389 19141 ft 314 kts 351°
2026-05-08 20:04 44.56153 -73.50643 18895 ft 314 kts 351°
2026-05-08 20:04 44.58328 -73.50898 18654 ft 314 kts 351°
2026-05-08 20:04 44.60504 -73.51153 18406 ft 313 kts 351°
2026-05-08 20:04 44.62676 -73.51404 18168 ft 313 kts 351°
2026-05-08 20:05 44.64846 -73.51655 17885 ft 313 kts 351°
2026-05-08 20:05 44.66980 -73.51906 17613 ft 312 kts 351°
2026-05-08 20:05 44.69140 -73.52162 17342 ft 311 kts 351°
2026-05-08 20:05 44.71291 -73.52416 17074 ft 310 kts 351°
2026-05-08 20:06 44.73436 -73.52673 16804 ft 309 kts 351°
2026-05-08 20:06 44.75576 -73.52929 16535 ft 308 kts 351°
2026-05-08 20:06 44.77708 -73.53182 16270 ft 307 kts 351°
2026-05-08 20:06 44.79837 -73.53436 16005 ft 306 kts 351°
2026-05-08 20:07 44.81957 -73.53688 15746 ft 305 kts 351°
2026-05-08 20:07 44.84072 -73.53941 15482 ft 304 kts 351°
2026-05-08 20:07 44.86179 -73.54192 15228 ft 304 kts 351°
2026-05-08 20:07 44.88283 -73.54434 14969 ft 303 kts 351°
2026-05-08 20:08 44.90380 -73.54666 14713 ft 302 kts 352°
2026-05-08 20:08 44.92466 -73.54891 14464 ft 299 kts 352°
2026-05-08 20:08 44.94534 -73.55109 14099 ft 298 kts 352°
2026-05-08 20:08 44.96604 -73.55330 13685 ft 299 kts 352°
2026-05-08 20:09 44.98684 -73.55556 13218 ft 300 kts 352°
2026-05-08 20:09 45.00765 -73.55786 12782 ft 299 kts 352°
2026-05-08 20:09 45.02832 -73.56014 12402 ft 297 kts 352°
2026-05-08 20:09 45.04894 -73.56241 12026 ft 295 kts 352°
2026-05-08 20:10 45.06950 -73.56467 11561 ft 296 kts 352°
2026-05-08 20:10 45.08981 -73.56691 11266 ft 291 kts 352°
2026-05-08 20:10 45.11002 -73.56919 10844 ft 291 kts 352°
2026-05-08 20:10 45.13015 -73.57146 10466 ft 290 kts 352°
2026-05-08 20:11 45.15028 -73.57367 10059 ft 289 kts 352°
2026-05-08 20:11 45.16980 -73.57578 9891 ft 283 kts 352°
2026-05-08 20:11 45.18952 -73.57793 9407 ft 285 kts 352°
2026-05-08 20:11 45.20929 -73.58010 8984 ft 284 kts 352°
2026-05-08 20:12 45.22889 -73.58225 8618 ft 282 kts 352°
2026-05-08 20:12 45.24834 -73.58441 8276 ft 278 kts 352°
2026-05-08 20:12 45.26754 -73.58655 7954 ft 276 kts 352°
2026-05-08 20:12 45.28658 -73.58868 7632 ft 273 kts 352°
2026-05-08 20:13 45.30523 -73.59077 7420 ft 266 kts 352°
2026-05-08 20:13 45.32370 -73.59280 7002 ft 266 kts 352°
2026-05-08 20:13 45.33591 -73.59413 6782 ft 265 kts 351°
2026-05-08 20:13 45.36028 -73.59677 6362 ft 260 kts 351°
2026-05-08 20:14 45.37220 -73.59801 6155 ft 259 kts 354°
2026-05-08 20:14 45.39021 -73.59570 5830 ft 263 kts 10°
2026-05-08 20:14 45.40733 -73.58641 5516 ft 266 kts 26°
2026-05-08 20:14 45.42284 -73.57191 5199 ft 267 kts 31°
2026-05-08 20:15 45.43814 -73.55709 4884 ft 265 kts 31°
2026-05-08 20:15 45.45342 -73.54236 4554 ft 265 kts 31°
2026-05-08 20:15 45.46865 -73.52772 4377 ft 263 kts 31°
2026-05-08 20:15 45.48386 -73.51311 4280 ft 264 kts 31°
2026-05-08 20:16 45.49911 -73.49847 4165 ft 264 kts 31°
2026-05-08 20:16 45.51432 -73.48385 4056 ft 264 kts 31°
2026-05-08 20:16 45.52951 -73.46923 3955 ft 263 kts 31°
2026-05-08 20:16 45.54469 -73.45458 3890 ft 263 kts 31°
2026-05-08 20:17 45.56037 -73.44148 3833 ft 259 kts 17°
2026-05-08 20:17 45.57753 -73.43741 3780 ft 251 kts 352°
2026-05-08 20:17 45.59403 -73.44350 3693 ft 241 kts 328°
2026-05-08 20:17 45.60684 -73.45776 3589 ft 230 kts 306°
2026-05-08 20:18 45.61469 -73.47725 3492 ft 226 kts 289°
2026-05-08 20:18 45.62032 -73.49821 3381 ft 226 kts 287°
2026-05-08 20:18 45.62309 -73.51994 3272 ft 219 kts 269°
2026-05-08 20:18 45.62109 -73.54100 3170 ft 212 kts 253°
2026-05-08 20:19 45.61502 -73.55957 3066 ft 204 kts 236°
2026-05-08 20:19 45.60562 -73.57462 2996 ft 200 kts 227°
2026-05-08 20:19 45.59578 -73.58791 3000 ft 191 kts 225°
2026-05-08 20:19 45.58615 -73.60064 2905 ft 186 kts 225°
2026-05-08 20:20 45.57668 -73.61312 2693 ft 184 kts 226°
2026-05-08 20:20 45.56739 -73.62536 2463 ft 181 kts 226°
2026-05-08 20:20 45.55833 -73.63728 2229 ft 171 kts 226°
2026-05-08 20:20 45.54991 -73.64835 1998 ft 159 kts 226°
2026-05-08 20:21 45.54191 -73.65887 1773 ft 154 kts 226°
2026-05-08 20:21 45.53423 -73.66897 1556 ft 146 kts 227°
2026-05-08 20:21 45.52693 -73.67857 1360 ft 139 kts 227°
2026-05-08 20:21 45.51999 -73.68769 1168 ft 133 kts 227°
2026-05-08 20:22 45.51316 -73.69667 970 ft 135 kts 225°
2026-05-08 20:22 45.50636 -73.70560 814 ft 130 kts 225°
2026-05-08 20:22 45.49988 -73.71410 622 ft 126 kts 223°
2026-05-08 20:22 45.49345 -73.72254 430 ft 125 kts 224°
2026-05-08 20:23 45.48703 -73.73096 267 ft 125 kts 225°
2026-05-08 20:23 45.48069 -73.73933 152 ft 123 kts 223°
2026-05-08 20:23 45.47463 -73.74727 114 ft 109 kts 223°
2026-05-08 20:23 45.47027 -73.75295 107 ft 64 kts 222°
2026-05-08 20:24 45.46820 -73.75538 108 ft 32 kts 208°
2026-05-08 20:24 45.46643 -73.75617 112 ft 18 kts 193°
2026-05-08 20:24 45.46522 -73.75656 112 ft 18 kts 195°
2026-05-08 20:24 45.46410 -73.75697 109 ft 12 kts 191°
2026-05-08 20:25 45.46317 -73.75717 106 ft 15 kts 187°
2026-05-08 20:25 45.46219 -73.75724 106 ft 12 kts 181°
2026-05-08 20:25 45.46133 -73.75721 105 ft 13 kts 178°
2026-05-08 20:25 45.46062 -73.75670 105 ft 12 kts 107°
2026-05-08 20:26 45.46061 -73.75565 106 ft 9 kts 94°
2026-05-08 20:26 45.46021 -73.75540 107 ft 6 kts 183°
2026-05-08 20:26 45.45982 -73.75540 107 ft 5 kts 178°